| time (UTC) | temp C | wind direction | speed KPH | gust KPH | rain 1hr cm | rain 24hr cm | rain mn cm | humidity % | barometer mb |
| 20260507211005 | 13 | 73 | 3.2 | 8.0 | 0.00 | 0.03 | 0.03 | 80 | 1021.3 |
| 20260507205004 | 13 | 187 | 3.2 | 12.9 | 0.00 | 0.03 | 0.03 | 79 | 1021.3 |
| 20260507204005 | 13 | 225 | 4.8 | 12.9 | 0.03 | 0.03 | 0.03 | 81 | 1021.3 |
| 20260507203005 | 13 | 150 | 8.0 | 9.7 | 0.03 | 0.03 | 0.03 | 82 | 1021.3 |
| 20260507202005 | 13 | 165 | 6.4 | 9.7 | 0.03 | 0.03 | 0.03 | 82 | 1021.2 |
| 20260507201005 | 13 | 189 | 3.2 | 4.8 | 0.03 | 0.03 | 0.03 | 83 | 1021.3 |
| 20260507200005 | 14 | 99 | 1.6 | 8.0 | 0.03 | 0.03 | 0.03 | 83 | 1021.0 |
| 20260507195005 | 14 | 167 | 4.8 | 12.9 | 0.03 | 0.03 | 0.03 | 79 | 1021.0 |
| 20260507193005 | 15 | 261 | 4.8 | 8.0 | 0.00 | 0.00 | 0.00 | 77 | 1020.7 |
| 20260507192005 | 15 | 197 | 3.2 | 4.8 | 0.00 | 0.00 | 0.00 | 76 | 1020.7 |
| 20260507190005 | 15 | 232 | 3.2 | 4.8 | 0.00 | 0.00 | 0.00 | 77 | 1020.0 |
| 20260507180005 | 15 | 156 | 4.8 | 8.0 | 0.00 | 0.00 | 0.00 | 78 | 1020.0 |
| 20260507175005 | 15 | 151 | 3.2 | 8.0 | 0.00 | 0.00 | 0.00 | 76 | 1020.0 |
| 20260507171005 | 17 | 144 | 1.6 | 3.2 | 0.00 | 0.00 | 0.00 | 67 | 1019.3 |
| 20260507170005 | 17 | 144 | 1.6 | 3.2 | 0.00 | 0.00 | 0.00 | 67 | 1019.0 |
| 20260507165004 | 17 | 111 | 3.2 | 11.3 | 0.00 | 0.00 | 0.00 | 67 | 1019.0 |
| 20260507164005 | 17 | 155 | 4.8 | 11.3 | 0.00 | 0.00 | 0.00 | 65 | 1019.0 |
| 20260507162005 | 18 | 279 | 3.2 | 3.2 | 0.00 | 0.00 | 0.00 | 55 | 1019.0 |
| 20260507153004 | 20 | 23 | 4.8 | 9.7 | 0.00 | 0.00 | 0.00 | 48 | 1018.3 |
| 20260507152005 | 20 | 216 | 4.8 | 11.3 | 0.00 | 0.00 | 0.00 | 48 | 1018.3 |
| 20260507151005 | 20 | 186 | 8.0 | 11.3 | 0.00 | 0.00 | 0.00 | 48 | 1018.3 |
| 20260507150005 | 20 | 191 | 4.8 | 8.0 | 0.00 | 0.00 | 0.00 | 46 | 1018.3 |
| 20260507145005 | 21 | 192 | 4.8 | 9.7 | 0.00 | 0.00 | 0.00 | 44 | 1017.9 |
| 20260507143004 | 21 | 92 | 3.2 | 4.8 | 0.00 | 0.00 | 0.00 | 44 | 1018.3 |
| 20260507142005 | 20 | 149 | 3.2 | 8.0 | 0.00 | 0.00 | 0.00 | 44 | 1018.3 |
| 20260507141006 | 21 | 110 | 4.8 | 8.0 | 0.00 | 0.00 | 0.00 | 44 | 1018.3 |
| 20260507134004 | 21 | 3 | 1.6 | 12.9 | 0.00 | 0.00 | 0.00 | 41 | 1018.1 |
| 20260507132005 | 22 | 157 | 3.2 | 4.8 | 0.00 | 0.00 | 0.00 | 41 | 1018.3 |
| 20260507131005 | 22 | 77 | 1.6 | 4.8 | 0.00 | 0.00 | 0.00 | 42 | 1018.3 |
| 20260507130005 | 21 | 122 | 3.2 | 4.8 | 0.00 | 0.00 | 0.00 | 43 | 1018.3 |
| 20260507124005 | 21 | 294 | 4.8 | 8.0 | 0.00 | 0.00 | 0.00 | 45 | 1018.6 |
| 20260507123005 | 21 | 204 | 3.2 | 9.7 | 0.00 | 0.00 | 0.00 | 45 | 1018.6 |
| 20260507121005 | 20 | 332 | 6.4 | 11.3 | 0.00 | 0.00 | 0.00 | 46 | 1018.6 |
| 20260507113005 | 21 | 134 | 1.6 | 12.9 | 0.00 | 0.00 | 0.00 | 45 | 1019.0 |
| 20260507112005 | 21 | 336 | 9.7 | 12.9 | 0.00 | 0.00 | 0.00 | 44 | 1019.0 |
| 20260507111005 | 20 | 325 | 3.2 | 12.9 | 0.00 | 0.00 | 0.00 | 47 | 1019.0 |
| 20260507110005 | 20 | 194 | 3.2 | 3.2 | 0.00 | 0.00 | 0.00 | 48 | 1019.3 |
| 20260507105004 | 18 | 103 | 3.2 | 9.7 | 0.00 | 0.00 | 0.00 | 50 | 1019.3 |
| 20260507104005 | 18 | 209 | 3.2 | 9.7 | 0.00 | 0.00 | 0.00 | 51 | 1019.6 |
| 20260507103004 | 19 | 169 | 1.6 | 3.2 | 0.00 | 0.00 | 0.00 | 51 | 1019.6 |
| 20260507102006 | 18 | 35 | 3.2 | 4.8 | 0.00 | 0.00 | 0.00 | 53 | 1019.6 |
| 20260507101004 | 18 | 236 | 3.2 | 4.8 | 0.00 | 0.00 | 0.00 | 50 | 1019.6 |
| 20260507100005 | 18 | 124 | 1.6 | 4.8 | 0.00 | 0.00 | 0.00 | 50 | 1020.0 |
| 20260507093005 | 18 | 283 | 3.2 | 4.8 | 0.00 | 0.00 | 0.00 | 50 | 1019.3 |
| 20260507092004 | 17 | 284 | 1.6 | 4.8 | 0.00 | 0.00 | 0.00 | 53 | 1019.3 |
| 20260507091005 | 17 | 141 | 3.2 | 4.8 | 0.00 | 0.00 | 0.00 | 54 | 1019.3 |
| 20260507090006 | 17 | 177 | 4.8 | 12.9 | 0.00 | 0.00 | 0.00 | 53 | 1019.0 |
| 20260507085005 | 17 | 324 | 9.7 | 12.9 | 0.00 | 0.00 | 0.00 | 54 | 1019.3 |
| 20260507084005 | 17 | 251 | 3.2 | 8.0 | 0.00 | 0.00 | 0.00 | 53 | 1019.0 |
| 20260507082004 | 17 | 103 | 3.2 | 11.3 | 0.00 | 0.00 | 0.00 | 55 | 1018.6 |
| 20260507081005 | 17 | 239 | 8.0 | 11.3 | 0.00 | 0.00 | 0.00 | 55 | 1019.0 |
| 20260507080005 | 16 | 45 | 1.6 | 4.8 | 0.00 | 0.00 | 0.00 | 56 | 1018.6 |
| 20260507075004 | 16 | 102 | 3.2 | 4.8 | 0.00 | 0.00 | 0.00 | 57 | 1018.6 |
| 20260507074004 | 16 | 91 | 1.6 | 3.2 | 0.00 | 0.00 | 0.00 | 57 | 1018.3 |
| 20260507073004 | 16 | 58 | 1.6 | 14.5 | 0.00 | 0.00 | 0.00 | 59 | 1018.3 |
| 20260507072005 | 15 | 238 | 9.7 | 14.5 | 0.00 | 0.00 | 0.00 | 61 | 1017.9 |
| 20260507071005 | 15 | 238 | 9.7 | 14.5 | 0.00 | 0.00 | 0.00 | 61 | 1018.0 |
| 20260507070009 | 15 | 269 | 1.6 | 11.3 | 0.00 | 0.00 | 0.00 | 62 | 1017.9 |
| 20260507065004 | 15 | 297 | 4.8 | 11.3 | 0.00 | 0.00 | 0.00 | 62 | 1017.8 |
| 20260507064005 | 15 | 75 | 4.8 | 12.9 | 0.00 | 0.00 | 0.00 | 62 | 1017.6 |
| 20260507063005 | 15 | 272 | 8.0 | 19.3 | 0.00 | 0.00 | 0.00 | 62 | 1017.6 |
| 20260507060005 | 15 | 297 | 6.4 | 25.7 | 0.00 | 0.00 | 0.00 | 63 | 1017.6 |
| 20260507055005 | 15 | 17 | 11.3 | 25.7 | 0.00 | 0.00 | 0.00 | 63 | 1017.3 |
| 20260507053005 | 15 | 272 | 4.8 | 9.7 | 0.00 | 0.00 | 0.00 | 64 | 1016.9 |
| 20260507051004 | 14 | 4 | 11.3 | 27.4 | 0.00 | 0.00 | 0.00 | 64 | 1016.9 |
| 20260507050005 | 14 | 238 | 11.3 | 20.9 | 0.00 | 0.00 | 0.00 | 64 | 1016.6 |
| 20260507045005 | 14 | 236 | 1.6 | 11.3 | 0.00 | 0.00 | 0.00 | 64 | 1016.6 |
| 20260507044005 | 14 | 14 | 8.0 | 16.1 | 0.00 | 0.00 | 0.00 | 65 | 1016.6 |
| 20260507042005 | 14 | 315 | 11.3 | 14.5 | 0.00 | 0.00 | 0.00 | 65 | 1015.9 |
| 20260507040005 | 14 | 332 | 9.7 | 20.9 | 0.00 | 0.00 | 0.00 | 65 | 1015.9 |
| 20260507035004 | 14 | 264 | 4.8 | 19.3 | 0.00 | 0.00 | 0.00 | 65 | 1015.9 |
| 20260507034005 | 14 | 302 | 12.9 | 22.5 | 0.00 | 0.00 | 0.00 | 65 | 1015.6 |
| 20260507033005 | 14 | 336 | 4.8 | 20.9 | 0.00 | 0.00 | 0.00 | 65 | 1016.3 |
| 20260507032004 | 14 | 350 | 11.3 | 19.3 | 0.00 | 0.00 | 0.00 | 65 | 1015.9 |
| 20260507031005 | 15 | 24 | 9.7 | 16.1 | 0.00 | 0.00 | 0.00 | 65 | 1015.9 |
| 20260507030005 | 15 | 296 | 11.3 | 16.1 | 0.00 | 0.00 | 0.00 | 65 | 1015.9 |
| 20260507024005 | 15 | 218 | 11.3 | 22.5 | 0.00 | 0.00 | 0.00 | 65 | 1015.6 |
| 20260507022005 | 15 | 288 | 8.0 | 12.9 | 0.00 | 0.00 | 0.00 | 66 | 1015.6 |
| 20260507020005 | 15 | 261 | 9.7 | 12.9 | 0.00 | 0.00 | 0.00 | 67 | 1015.6 |
| 20260507014004 | 15 | 177 | 8.0 | 11.3 | 0.00 | 0.00 | 0.00 | 69 | 1015.2 |
| 20260507013005 | 15 | 81 | 4.8 | 8.0 | 0.00 | 0.00 | 0.00 | 68 | 1015.6 |
| 20260507012005 | 15 | 275 | 3.2 | 8.0 | 0.00 | 0.00 | 0.00 | 68 | 1015.6 |
| 20260507011004 | 15 | 220 | 3.2 | 12.9 | 0.00 | 0.00 | 0.00 | 68 | 1015.2 |
| 20260507003004 | 16 | 13 | 4.8 | 11.3 | 0.00 | 0.00 | 0.00 | 67 | 1014.9 |
| 20260507002004 | 16 | 335 | 8.0 | 24.1 | 0.00 | 0.00 | 0.00 | 67 | 1014.9 |
| 20260507000005 | 16 | 32 | 8.0 | 14.5 | 0.00 | 0.00 | 0.00 | 67 | 1014.6 |
| 20260506233005 | 16 | 264 | 4.8 | 9.7 | 0.00 | 0.00 | 0.00 | 71 | 1014.6 |
| 20260506232004 | 16 | 258 | 9.7 | 19.3 | 0.00 | 0.00 | 0.00 | 71 | 1014.2 |
| 20260506231004 | 16 | 259 | 9.7 | 22.5 | 0.00 | 0.00 | 0.00 | 71 | 1014.6 |
| 20260506224005 | 17 | 321 | 4.8 | 12.9 | 0.00 | 0.00 | 0.00 | 64 | 1013.9 |
| 20260506223005 | 17 | 267 | 6.4 | 14.5 | 0.00 | 0.00 | 0.00 | 64 | 1013.5 |
| 20260506222005 | 17 | 24 | 4.8 | 12.9 | 0.00 | 0.00 | 0.00 | 63 | 1013.2 |
| 20260506221005 | 17 | 242 | 4.8 | 8.0 | 0.00 | 0.00 | 0.00 | 62 | 1012.9 |
| 20260506215006 | 18 | 82 | 0.0 | 4.8 | 0.00 | 0.00 | 0.00 | 63 | 1012.5 |